STARLINK-31462, 59466

Orbit data source: Space-Track

STARLINK-31462, 59466 is a payload satellite owned by SpaceX/Seattle (US) in LEO that was launched on Wed, 10 Apr 2024 UTC via an FALCON 9 launch vehicle from the Air Force Eastern Test Range (AFETR). Payload-class satellites include a variety of spacecraft equipped with specific instruments for various scientific and technological missions. These include communications satellites like Starlink; space stations such as the ISS; scientific satellites like the Hubble; Earth observation satellites from companies like Planet Labs, Umbra, and HawkEye 360; GPS; miniature CubeSats for education and research; and military/defense satellites.

Loading next visibility...
Identifier
59466, 2024-068M
Orbit
LEO
Country
Flag of USUS
Related business
Manufacturer
SpaceX/Seattle
Mission
Operational Commercial Communications
Bus & Motor
STARLINK V2M, Unknown motor
Mass
730 kg wet, ~700 kg dry
Launch date (UTC)
2024-04-10 (2 years ago)
Launch vehicle
FALCON 9
Launch site
Air Force Eastern Test Range (AFETR)
Object type
Payload
Rocket body
Debris
Shape & HBR
Box + 2 Pan, 17.7 m
Radar Cross Section
33.884 m², Large (>1 m²)

Expand to show TLE details & history
Last TLE update: 2 days ago

TLE from 2 days ago
0 STARLINK-31462
1 59466U 24068M   26171.08510567  .00000715  00000-0  35488-4 0  9994
2 59466  43.0014 176.1505 0001518 277.3463  82.7216 15.27589367124181
Epoch: 2026-06-20T02:02Z
TLE epoch observation values (Epoch: 2026-06-20T02:02:33.129Z)
Latitude
-0.00004°
Longitude
-122.79238°
Altitude
482.665 km
Speed
7.626 km/s
True Right ascension
11h 44m 36s
True Declination
0° 00' 00"
Sunlit
Object was in daylight at epoch
Visualization orbit readout
Latitude
Unknown
Longitude
Unknown
Altitude
Unknown
Speed
Unknown
Apparent Right ascension
Unknown
Apparent Declination
Unknown
Sunlit
N/A
Visualization observer readout
Local Sidereal Time
21:29:06
Azimuth
Unknown
Elevation
Unknown
Doppler factor
Unknown
Orbital elements
Apogee altitude
486.008 km
Perigee altitude
483.924 km
Semi-major axis
6,863.103 km
Eccentricity
0.00015
Inclination
43.0014°
RAAN
176.1505°
Arg. of periapsis
277.3463°
True anomaly
82.73886°
Mean anomaly
82.7216°
Eccentric anomaly
82.73023°
Mean motion
3.81735 °/min
Orbital period
94.31 mins
BSTAR
0.000035488
Loading maneuver chart data...
Computing Atmospheric mass density...
Loading historical data...
Loading historical data...
Loading historical data...
Loading historical data...
Loading historical data...
Loading historical data...
Loading historical data...

Documentation

Showing up to 5 results
|